Location: Bayshore Village Mobile Home Park
(26.6945°N, 81.8642°W)
Time: 21:35:37
(UTC+00:00)

Cosmos 1726 - Pass Details

Date: 17 June 2021
Orbit: 480 x 496 km, 82.5° (Epoch: 31 July)

Event Time Altitude Azimuth Distance (km) Brightness Sun altitude
Rises 02:59:22 0° 335° (NNW) 2,539 6.9 -28.3°
Reaches altitude 10° 03:01:50 10° 319° (NW) 1,658 5.7 -28.7°
Enters shadow 03:03:57 20° 284° (WNW) 1,179 4.5 -29.0°
